Private Wetterstation Wechselburg
Wetterdaten: Donnerstag, 24.07.2014
Datum Zeit Temp. +2m Bodentemp. Temp.+5cm Temp. Wind Windchill X Diff Temp. Feuchte +2m Feuchte +5cm Sonnenschein Luftdruck Regen Wind Richtung Richtung Sonnenschein UV Taupunkt Windchill Windben
24.07.2014 00:00 17,3 C 25,4 C 17,9 C 17,1 C 16,8 C 0,0 C 75 % 75 % 0 % 1014,7 hPa 0,0 l/m 0,0 km/h (0 Bft) NO 45 0 min 0,0 UV-I 12,8 C 16,8 C 0,0 km/h (0 Bft)
24.07.2014 00:05 17,3 C 25,4 C 17,9 C 17,1 C 16,8 C 0,0 C 75 % 75 % 0 % 1014,7 hPa 0,0 l/m 0,0 km/h (0 Bft) NO 45 0 min 0,0 UV-I 12,8 C 16,8 C 0,0 km/h (0 Bft)
24.07.2014 00:10 17,3 C 25,4 C 17,9 C 17,1 C 16,8 C 0,0 C 75 % 75 % 0 % 1014,7 hPa 0,0 l/m 0,0 km/h (0 Bft) NO 45 0 min 0,0 UV-I 12,8 C 16,8 C 0,0 km/h (0 Bft)
24.07.2014 00:15 17,4 C 25,4 C 18,0 C 17,2 C 16,8 C 0,0 C 75 % 75 % 0 % 1014,7 hPa 0,0 l/m 0,0 km/h (0 Bft) NO 45 0 min 0,0 UV-I 12,9 C 16,8 C 0,0 km/h (0 Bft)
24.07.2014 00:20 17,4 C 25,4 C 17,9 C 17,3 C 17,0 C 0,0 C 75 % 75 % 0 % 1014,7 hPa 0,0 l/m 0,0 km/h (0 Bft) N-NO 22 0 min 0,0 UV-I 12,9 C 17,0 C 0,0 km/h (0 Bft)
24.07.2014 00:25 17,5 C 25,4 C 18,0 C 17,3 C 16,9 C 0,0 C 75 % 76 % 0 % 1014,7 hPa 0,0 l/m 0,0 km/h (0 Bft) N-NO 22 0 min 0,0 UV-I 13,0 C 16,9 C 0,0 km/h (0 Bft)
24.07.2014 00:30 17,5 C 25,4 C 17,9 C 17,2 C 16,7 C 0,0 C 76 % 76 % 0 % 1014,7 hPa 0,0 l/m 0,0 km/h (0 Bft) O 90 0 min 0,0 UV-I 13,2 C 16,7 C 0,0 km/h (0 Bft)
24.07.2014 00:35 17,5 C 25,4 C 17,9 C 17,3 C 16,8 C 0,0 C 76 % 77 % 0 % 1014,8 hPa 0,0 l/m 0,0 km/h (0 Bft) NO 45 0 min 0,0 UV-I 13,2 C 16,8 C 0,0 km/h (0 Bft)
24.07.2014 00:40 17,5 C 25,4 C 17,8 C 17,3 C 16,9 C 0,0 C 77 % 77 % 0 % 1014,8 hPa 0,0 l/m 0,0 km/h (0 Bft) N-NO 22 0 min 0,0 UV-I 13,4 C 16,9 C 0,0 km/h (0 Bft)
24.07.2014 00:45 17,5 C 25,4 C 17,9 C 17,3 C 17,0 C 0,0 C 77 % 77 % 0 % 1014,8 hPa 0,0 l/m 0,0 km/h (0 Bft) N-NO 22 0 min 0,0 UV-I 13,4 C 17,0 C 0,0 km/h (0 Bft)
24.07.2014 00:50 17,5 C 25,4 C 17,8 C 17,3 C 16,9 C 0,0 C 77 % 77 % 0 % 1014,8 hPa 0,0 l/m 0,0 km/h (0 Bft) O-NO 67 0 min 0,0 UV-I 13,4 C 16,9 C 0,0 km/h (0 Bft)
24.07.2014 00:55 17,5 C 25,4 C 17,8 C 17,3 C 17,0 C 0,0 C 77 % 77 % 0 % 1014,8 hPa 0,0 l/m 0,0 km/h (0 Bft) SW 225 0 min 0,0 UV-I 13,4 C 17,0 C 0,0 km/h (0 Bft)
24.07.2014 01:00 17,5 C 25,4 C 17,9 C 17,3 C 16,9 C 0,0 C 77 % 78 % 0 % 1014,8 hPa 0,0 l/m 0,0 km/h (0 Bft) W-SW 247 0 min 0,0 UV-I 13,4 C 16,9 C 0,0 km/h (0 Bft)
24.07.2014 01:05 17,5 C 25,4 C 17,9 C 17,3 C 16,8 C 0,0 C 78 % 78 % 0 % 1014,8 hPa 0,0 l/m 0,0 km/h (0 Bft) W-SW 247 0 min 0,0 UV-I 13,6 C 16,8 C 0,0 km/h (0 Bft)
24.07.2014 01:10 17,5 C 25,4 C 17,7 C 17,2 C 16,6 C 0,0 C 78 % 78 % 0 % 1014,8 hPa 0,0 l/m 0,0 km/h (0 Bft) W-SW 247 0 min 0,0 UV-I 13,6 C 16,6 C 0,0 km/h (0 Bft)
24.07.2014 01:15 17,5 C 25,4 C 17,6 C 17,2 C 16,6 C 0,0 C 78 % 79 % 0 % 1014,7 hPa 0,0 l/m 0,0 km/h (0 Bft) N-NW 337 0 min 0,0 UV-I 13,6 C 16,6 C 0,0 km/h (0 Bft)
24.07.2014 01:20 17,3 C 25,4 C 17,6 C 17,0 C 16,5 C 0,0 C 79 % 79 % 0 % 1014,7 hPa 0,0 l/m 0,0 km/h (0 Bft) N-NW 337 0 min 0,0 UV-I 13,6 C 16,5 C 0,0 km/h (0 Bft)
24.07.2014 01:25 17,2 C 25,4 C 17,5 C 17,0 C 16,5 C 0,0 C 78 % 78 % 0 % 1014,7 hPa 0,0 l/m 0,0 km/h (0 Bft) N-NW 337 0 min 0,0 UV-I 13,3 C 16,5 C 0,0 km/h (0 Bft)
24.07.2014 01:30 17,2 C 25,4 C 17,5 C 16,9 C 16,4 C 0,0 C 78 % 78 % 0 % 1014,7 hPa 0,0 l/m 0,0 km/h (0 Bft) N-NW 337 0 min 0,0 UV-I 13,3 C 16,4 C 0,0 km/h (0 Bft)
24.07.2014 01:35 17,1 C 25,4 C 17,5 C 16,8 C 16,3 C 0,0 C 78 % 78 % 0 % 1014,6 hPa 0,0 l/m 0,0 km/h (0 Bft) N-NW 337 0 min 0,0 UV-I 13,2 C 16,3 C 0,0 km/h (0 Bft)
24.07.2014 01:40 17,1 C 25,4 C 17,5 C 16,9 C 16,4 C 0,0 C 79 % 79 % 0 % 1014,6 hPa 0,0 l/m 0,0 km/h (0 Bft) O 90 0 min 0,0 UV-I 13,4 C 16,4 C 0,0 km/h (0 Bft)
24.07.2014 01:45 17,1 C 25,4 C 17,5 C 16,9 C 16,4 C 0,0 C 80 % 79 % 0 % 1014,6 hPa 0,0 l/m 0,0 km/h (0 Bft) O-NO 67 0 min 0,0 UV-I 13,6 C 16,4 C 0,0 km/h (0 Bft)
24.07.2014 01:50 17,1 C 25,4 C 17,3 C 16,9 C 16,4 C 0,0 C 80 % 80 % 0 % 1014,6 hPa 0,0 l/m 0,0 km/h (0 Bft) O-NO 67 0 min 0,0 UV-I 13,6 C 16,4 C 0,0 km/h (0 Bft)
24.07.2014 01:55 17,0 C 25,4 C 17,3 C 16,8 C 16,3 C 0,0 C 80 % 79 % 0 % 1014,6 hPa 0,0 l/m 0,0 km/h (0 Bft) O-NO 67 0 min 0,0 UV-I 13,5 C 16,3 C 0,0 km/h (0 Bft)
24.07.2014 02:00 16,9 C 25,4 C 17,3 C 16,7 C 16,3 C 0,0 C 80 % 79 % 0 % 1014,6 hPa 0,0 l/m 0,0 km/h (0 Bft) O-NO 67 0 min 0,0 UV-I 13,4 C 16,3 C 0,0 km/h (0 Bft)
24.07.2014 02:05 16,8 C 25,4 C 17,2 C 16,6 C 16,3 C 0,0 C 80 % 79 % 0 % 1014,6 hPa 0,0 l/m 0,0 km/h (0 Bft) O-NO 67 0 min 0,0 UV-I 13,3 C 16,3 C 0,0 km/h (0 Bft)
24.07.2014 02:10 16,8 C 25,4 C 17,2 C 16,6 C 16,2 C 0,0 C 79 % 79 % 0 % 1014,6 hPa 0,0 l/m 0,0 km/h (0 Bft) O 90 0 min 0,0 UV-I 13,1 C 16,2 C 0,0 km/h (0 Bft)
24.07.2014 02:15 16,8 C 25,4 C 17,2 C 16,6 C 16,1 C 0,0 C 79 % 79 % 0 % 1014,2 hPa 0,0 l/m 0,0 km/h (0 Bft) O-NO 67 0 min 0,0 UV-I 13,1 C 16,1 C 0,0 km/h (0 Bft)
24.07.2014 02:20 16,8 C 25,4 C 17,2 C 16,5 C 15,9 C 0,0 C 80 % 80 % 0 % 1014,2 hPa 0,0 l/m 0,0 km/h (0 Bft) W 270 0 min 0,0 UV-I 13,3 C 15,9 C 0,0 km/h (0 Bft)
24.07.2014 02:25 16,8 C 25,4 C 17,1 C 16,5 C 15,8 C 0,0 C 80 % 80 % 0 % 1014,2 hPa 0,0 l/m 0,0 km/h (0 Bft) SW 225 0 min 0,0 UV-I 13,3 C 15,8 C 0,0 km/h (0 Bft)
24.07.2014 02:30 16,7 C 25,4 C 17,0 C 16,4 C 15,7 C 0,0 C 81 % 80 % 0 % 1014,2 hPa 0,0 l/m 0,0 km/h (0 Bft) S 180 0 min 0,0 UV-I 13,4 C 15,7 C 0,0 km/h (0 Bft)
24.07.2014 02:35 16,7 C 25,4 C 17,1 C 16,3 C 15,6 C 0,0 C 82 % 81 % 0 % 1014,2 hPa 0,0 l/m 0,0 km/h (0 Bft) O-NO 67 0 min 0,0 UV-I 13,6 C 15,6 C 0,0 km/h (0 Bft)
24.07.2014 02:40 16,6 C 25,4 C 16,9 C 16,3 C 15,8 C 0,0 C 82 % 81 % 0 % 1014,2 hPa 0,0 l/m 0,2 km/h (0 Bft) O 90 0 min 0,0 UV-I 13,5 C 15,8 C 2,4 km/h (1 Bft)
24.07.2014 02:45 16,5 C 25,4 C 16,9 C 16,3 C 15,8 C 0,0 C 82 % 81 % 0 % 1014,2 hPa 0,0 l/m 0,3 km/h (0 Bft) O-NO 67 0 min 0,0 UV-I 13,4 C 15,8 C 0,0 km/h (0 Bft)
24.07.2014 02:50 16,4 C 25,4 C 16,8 C 16,2 C 15,8 C 0,0 C 81 % 81 % 0 % 1014,2 hPa 0,0 l/m 0,3 km/h (0 Bft) N-NO 22 0 min 0,0 UV-I 13,1 C 15,8 C 0,0 km/h (0 Bft)
24.07.2014 02:55 16,5 C 25,4 C 16,8 C 16,3 C 15,8 C 0,0 C 81 % 81 % 0 % 1014,1 hPa 0,0 l/m 0,0 km/h (0 Bft) N-NO 22 0 min 0,0 UV-I 13,2 C 15,8 C 0,0 km/h (0 Bft)
24.07.2014 03:00 16,4 C 25,4 C 16,8 C 16,2 C 15,7 C 0,0 C 81 % 80 % 0 % 1014,1 hPa 0,0 l/m 0,0 km/h (0 Bft) S 180 0 min 0,0 UV-I 13,1 C 15,7 C 0,0 km/h (0 Bft)
24.07.2014 03:05 16,3 C 25,4 C 16,8 C 16,1 C 15,6 C 0,0 C 81 % 80 % 0 % 1014,1 hPa 0,0 l/m 0,0 km/h (0 Bft) S-SO 157 0 min 0,0 UV-I 13,0 C 15,6 C 0,0 km/h (0 Bft)
24.07.2014 03:10 16,3 C 25,4 C 16,8 C 16,0 C 15,5 C 0,0 C 81 % 80 % 0 % 1014,1 hPa 0,0 l/m 0,0 km/h (0 Bft) O-SO 112 0 min 0,0 UV-I 13,0 C 15,5 C 0,0 km/h (0 Bft)
24.07.2014 03:15 16,2 C 25,4 C 16,6 C 16,0 C 15,5 C 0,0 C 81 % 80 % 0 % 1013,5 hPa 0,0 l/m 0,0 km/h (0 Bft) NW 315 0 min 0,0 UV-I 12,9 C 15,5 C 0,0 km/h (0 Bft)
24.07.2014 03:20 16,3 C 25,4 C 16,7 C 16,0 C 15,4 C 0,0 C 81 % 80 % 0 % 1013,5 hPa 0,0 l/m 0,0 km/h (0 Bft) O-NO 67 0 min 0,0 UV-I 13,0 C 15,4 C 0,0 km/h (0 Bft)
24.07.2014 03:25 16,1 C 25,4 C 16,6 C 15,9 C 15,4 C 0,0 C 81 % 81 % 0 % 1013,5 hPa 0,0 l/m 0,0 km/h (0 Bft) O-NO 67 0 min 0,0 UV-I 12,8 C 15,4 C 0,0 km/h (0 Bft)
24.07.2014 03:30 16,1 C 25,4 C 16,6 C 15,9 C 15,5 C 0,0 C 81 % 81 % 0 % 1013,5 hPa 0,0 l/m 0,0 km/h (0 Bft) O-NO 67 0 min 0,0 UV-I 12,8 C 15,5 C 0,0 km/h (0 Bft)
24.07.2014 03:35 16,1 C 25,4 C 16,7 C 15,9 C 15,5 C 0,0 C 81 % 81 % 0 % 1013,6 hPa 0,0 l/m 0,0 km/h (0 Bft) O-NO 67 0 min 0,0 UV-I 12,8 C 15,5 C 0,0 km/h (0 Bft)
24.07.2014 03:40 16,0 C 25,4 C 16,5 C 15,9 C 15,6 C 0,0 C 82 % 81 % 0 % 1013,6 hPa 0,0 l/m 0,0 km/h (0 Bft) N-NW 337 0 min 0,0 UV-I 12,9 C 15,6 C 0,0 km/h (0 Bft)
24.07.2014 03:45 16,0 C 25,4 C 16,6 C 15,9 C 15,6 C 0,0 C 82 % 81 % 0 % 1013,6 hPa 0,0 l/m 0,0 km/h (0 Bft) W-NW 292 0 min 0,0 UV-I 12,9 C 15,6 C 0,0 km/h (0 Bft)
24.07.2014 03:50 16,0 C 25,4 C 16,7 C 15,9 C 15,6 C 0,0 C 82 % 82 % 0 % 1013,6 hPa 0,0 l/m 0,0 km/h (0 Bft) W 270 0 min 0,0 UV-I 12,9 C 15,6 C 0,0 km/h (0 Bft)
24.07.2014 03:55 16,0 C 25,4 C 16,7 C 15,8 C 15,5 C 0,0 C 83 % 82 % 0 % 1013,7 hPa 0,0 l/m 0,0 km/h (0 Bft) O-NO 67 0 min 0,0 UV-I 13,1 C 15,5 C 0,0 km/h (0 Bft)
24.07.2014 04:00 16,0 C 25,4 C 16,5 C 15,9 C 15,6 C 0,0 C 83 % 82 % 0 % 1013,7 hPa 0,0 l/m 1,1 km/h (1 Bft) O 90 0 min 0,0 UV-I 13,1 C 15,6 C 3,9 km/h (1 Bft)
24.07.2014 04:05 16,0 C 25,4 C 16,5 C 15,9 C 15,7 C 0,0 C 82 % 81 % 0 % 1013,7 hPa 0,0 l/m 1,9 km/h (1 Bft) O-NO 67 0 min 0,0 UV-I 12,9 C 15,7 C 2,1 km/h (1 Bft)
24.07.2014 04:10 16,1 C 25,4 C 16,6 C 16,0 C 15,8 C 0,0 C 82 % 81 % 0 % 1013,7 hPa 0,0 l/m 1,6 km/h (1 Bft) O 90 0 min 0,0 UV-I 13,0 C 15,8 C 0,0 km/h (0 Bft)
24.07.2014 04:15 16,1 C 25,4 C 16,7 C 16,0 C 15,8 C 0,0 C 82 % 81 % 0 % 1013,8 hPa 0,0 l/m 0,6 km/h (0 Bft) O-NO 67 0 min 0,0 UV-I 13,0 C 15,8 C 0,0 km/h (0 Bft)
24.07.2014 04:20 16,1 C 25,4 C 16,5 C 16,0 C 15,7 C 0,0 C 82 % 81 % 0 % 1013,8 hPa 0,0 l/m 0,0 km/h (0 Bft) NW 315 0 min 0,0 UV-I 13,0 C 15,7 C 0,0 km/h (0 Bft)
24.07.2014 04:25 16,1 C 25,4 C 16,5 C 15,9 C 15,6 C 0,0 C 82 % 81 % 0 % 1013,8 hPa 0,0 l/m 0,0 km/h (0 Bft) W-SW 247 0 min 0,0 UV-I 13,0 C 15,6 C 0,0 km/h (0 Bft)
24.07.2014 04:30 16,1 C 25,4 C 16,5 C 15,9 C 15,4 C 0,0 C 82 % 82 % 0 % 1013,8 hPa 0,0 l/m 0,0 km/h (0 Bft) N-NW 337 0 min 0,0 UV-I 13,0 C 15,4 C 0,0 km/h (0 Bft)
24.07.2014 04:35 16,0 C 25,4 C 16,4 C 15,8 C 15,3 C 0,0 C 82 % 82 % 0 % 1013,9 hPa 0,0 l/m 0,0 km/h (0 Bft) O-NO 67 0 min 0,0 UV-I 12,9 C 15,3 C 0,0 km/h (0 Bft)
24.07.2014 04:40 16,0 C 25,4 C 16,4 C 15,8 C 15,4 C 0,0 C 82 % 82 % 0 % 1013,9 hPa 0,0 l/m 0,0 km/h (0 Bft) O-NO 67 0 min 0,0 UV-I 12,9 C 15,4 C 0,0 km/h (0 Bft)
24.07.2014 04:45 16,0 C 25,4 C 16,4 C 15,8 C 15,4 C 0,0 C 82 % 82 % 0 % 1013,9 hPa 0,0 l/m 0,0 km/h (0 Bft) SO 135 0 min 0,0 UV-I 12,9 C 15,4 C 0,0 km/h (0 Bft)
24.07.2014 04:50 16,0 C 25,4 C 16,4 C 15,9 C 15,6 C 0,0 C 82 % 82 % 0 % 1013,9 hPa 0,0 l/m 0,0 km/h (0 Bft) W-SW 247 0 min 0,0 UV-I 12,9 C 15,6 C 0,0 km/h (0 Bft)
24.07.2014 04:55 16,0 C 25,4 C 16,4 C 15,9 C 15,6 C 0,0 C 83 % 82 % 0 % 1014,0 hPa 0,0 l/m 0,3 km/h (0 Bft) W 270 0 min 0,0 UV-I 13,1 C 15,6 C 0,0 km/h (0 Bft)
24.07.2014 05:00 16,0 C 25,4 C 16,4 C 15,9 C 15,6 C 0,0 C 83 % 82 % 0 % 1014,0 hPa 0,0 l/m 0,5 km/h (0 Bft) W-NW 292 0 min 0,0 UV-I 13,1 C 15,6 C 0,0 km/h (0 Bft)
24.07.2014 05:05 16,0 C 25,4 C 16,4 C 15,9 C 15,6 C 0,0 C 83 % 82 % 0 % 1014,0 hPa 0,0 l/m 0,3 km/h (0 Bft) O-NO 67 0 min 0,0 UV-I 13,1 C 15,6 C 0,0 km/h (0 Bft)
24.07.2014 05:10 16,0 C 25,4 C 16,5 C 15,9 C 15,7 C 0,0 C 83 % 82 % 0 % 1014,0 hPa 0,0 l/m 0,0 km/h (0 Bft) O 90 0 min 0,0 UV-I 13,1 C 15,7 C 0,0 km/h (0 Bft)
24.07.2014 05:15 16,1 C 25,4 C 16,5 C 15,9 C 15,6 C 0,0 C 83 % 82 % 0 % 1013,9 hPa 0,0 l/m 0,0 km/h (0 Bft) O 90 0 min 0,0 UV-I 13,2 C 15,6 C 0,0 km/h (0 Bft)
24.07.2014 05:20 16,1 C 25,4 C 16,4 C 15,9 C 15,6 C 0,0 C 83 % 82 % 0 % 1013,9 hPa 0,0 l/m 0,0 km/h (0 Bft) O-NO 67 0 min 0,0 UV-I 13,2 C 15,6 C 0,0 km/h (0 Bft)
24.07.2014 05:25 16,1 C 25,4 C 16,4 C 15,9 C 15,6 C 0,0 C 83 % 82 % 0 % 1013,9 hPa 0,0 l/m 0,0 km/h (0 Bft) O-NO 67 0 min 0,0 UV-I 13,2 C 15,6 C 0,0 km/h (0 Bft)
24.07.2014 05:30 16,0 C 25,4 C 16,4 C 15,9 C 15,7 C 0,0 C 83 % 82 % 0 % 1013,9 hPa 0,0 l/m 0,2 km/h (0 Bft) SO 135 0 min 0,0 UV-I 13,1 C 15,7 C 0,0 km/h (0 Bft)
24.07.2014 05:35 16,0 C 25,4 C 16,4 C 15,9 C 15,7 C 0,0 C 83 % 82 % 0 % 1014,3 hPa 0,0 l/m 0,2 km/h (0 Bft) O-NO 67 0 min 0,0 UV-I 13,1 C 15,7 C 0,0 km/h (0 Bft)
24.07.2014 05:40 16,0 C 25,4 C 16,5 C 15,9 C 15,7 C 0,0 C 83 % 82 % 0 % 1014,3 hPa 0,0 l/m 0,0 km/h (0 Bft) NO 45 0 min 0,0 UV-I 13,1 C 15,7 C 0,0 km/h (0 Bft)
24.07.2014 05:45 16,0 C 25,4 C 16,4 C 15,9 C 15,7 C 0,0 C 83 % 82 % 0 % 1014,3 hPa 0,0 l/m 0,0 km/h (0 Bft) N-NO 22 0 min 0,0 UV-I 13,1 C 15,7 C 0,0 km/h (0 Bft)
24.07.2014 05:50 16,0 C 25,4 C 16,4 C 15,9 C 15,8 C 0,0 C 83 % 82 % 0 % 1014,3 hPa 0,0 l/m 0,0 km/h (0 Bft) S 180 0 min 0,0 UV-I 13,1 C 15,8 C 0,0 km/h (0 Bft)
24.07.2014 05:55 16,0 C 25,4 C 16,4 C 15,9 C 15,8 C 0,0 C 83 % 82 % 0 % 1014,4 hPa 0,0 l/m 0,0 km/h (0 Bft) S-SO 157 0 min 0,0 UV-I 13,1 C 15,8 C 0,0 km/h (0 Bft)
24.07.2014 06:00 16,0 C 25,4 C 16,5 C 15,9 C 15,8 C 0,0 C 83 % 82 % 0 % 1014,4 hPa 0,0 l/m 0,0 km/h (0 Bft) SO 135 0 min 0,0 UV-I 13,1 C 15,8 C 0,0 km/h (0 Bft)
24.07.2014 06:05 15,9 C 25,4 C 16,4 C 15,9 C 15,8 C 0,0 C 83 % 82 % 0 % 1014,4 hPa 0,0 l/m 0,0 km/h (0 Bft) O-NO 67 0 min 0,0 UV-I 13,0 C 15,8 C 0,0 km/h (0 Bft)
24.07.2014 06:10 15,9 C 25,4 C 16,5 C 15,9 C 15,9 C 0,0 C 84 % 82 % 0 % 1014,4 hPa 0,0 l/m 0,0 km/h (0 Bft) O-NO 67 0 min 0,0 UV-I 13,2 C 15,9 C 0,0 km/h (0 Bft)
24.07.2014 06:15 15,9 C 25,4 C 16,5 C 15,9 C 15,9 C 0,0 C 84 % 83 % 0 % 1014,6 hPa 0,0 l/m 0,0 km/h (0 Bft) NO 45 0 min 0,0 UV-I 13,2 C 15,9 C 0,0 km/h (0 Bft)
24.07.2014 06:20 15,9 C 25,4 C 16,6 C 16,0 C 16,0 C 0,1 C 84 % 83 % 3 % 1014,6 hPa 0,0 l/m 0,3 km/h (0 Bft) O-NO 67 0 min 0,0 UV-I 13,2 C 16,0 C 2,3 km/h (1 Bft)
24.07.2014 06:25 15,9 C 25,4 C 16,5 C 16,1 C 16,1 C 0,2 C 84 % 83 % 5 % 1014,6 hPa 0,0 l/m 1,1 km/h (1 Bft) O-NO 67 0 min 0,0 UV-I 13,2 C 16,1 C 2,1 km/h (1 Bft)
24.07.2014 06:30 15,9 C 25,4 C 16,7 C 16,3 C 16,3 C 0,4 C 84 % 83 % 11 % 1014,6 hPa 0,0 l/m 2,4 km/h (1 Bft) O-SO 112 0 min 0,0 UV-I 13,2 C 16,3 C 2,7 km/h (1 Bft)
24.07.2014 06:35 15,9 C 25,4 C 16,7 C 16,5 C 16,5 C 0,6 C 84 % 83 % 16 % 1014,9 hPa 0,0 l/m 2,7 km/h (1 Bft) O-NO 67 0 min 0,0 UV-I 13,2 C 16,5 C 5,1 km/h (1 Bft)
24.07.2014 06:40 16,1 C 25,4 C 16,8 C 16,6 C 16,6 C 0,5 C 84 % 82 % 13 % 1014,9 hPa 0,0 l/m 2,7 km/h (1 Bft) O 90 0 min 0,0 UV-I 13,4 C 16,6 C 2,3 km/h (1 Bft)
24.07.2014 06:45 16,1 C 25,4 C 16,8 C 16,7 C 16,7 C 0,6 C 84 % 82 % 16 % 1014,9 hPa 0,0 l/m 2,1 km/h (1 Bft) O-NO 67 0 min 0,0 UV-I 13,4 C 16,7 C 0,0 km/h (0 Bft)
24.07.2014 06:50 16,3 C 25,4 C 16,9 C 16,7 C 16,7 C 0,4 C 84 % 82 % 11 % 1014,9 hPa 0,0 l/m 0,5 km/h (0 Bft) O-NO 67 0 min 0,0 UV-I 13,6 C 16,7 C 0,0 km/h (0 Bft)
24.07.2014 06:55 16,2 C 25,4 C 17,1 C 16,7 C 16,7 C 0,5 C 83 % 82 % 13 % 1014,6 hPa 0,0 l/m 0,2 km/h (0 Bft) N-NO 22 0 min 0,0 UV-I 13,3 C 16,7 C 0,0 km/h (0 Bft)
24.07.2014 07:00 16,3 C 25,4 C 17,2 C 16,8 C 16,8 C 0,5 C 83 % 82 % 13 % 1014,6 hPa 0,0 l/m 0,2 km/h (0 Bft) N 360 0 min 0,0 UV-I 13,4 C 16,8 C 0,0 km/h (0 Bft)
24.07.2014 07:05 16,3 C 25,4 C 17,4 C 16,8 C 16,8 C 0,5 C 83 % 82 % 13 % 1014,6 hPa 0,0 l/m 0,2 km/h (0 Bft) NW 315 0 min 0,0 UV-I 13,4 C 16,8 C 0,0 km/h (0 Bft)
24.07.2014 07:10 16,4 C 25,4 C 17,6 C 17,9 C 17,9 C 1,5 C 83 % 81 % 39 % 1014,6 hPa 0,0 l/m 1,1 km/h (1 Bft) O-NO 67 0 min 0,0 UV-I 13,5 C 17,9 C 3,9 km/h (1 Bft)
24.07.2014 07:15 16,4 C 25,4 C 17,6 C 19,5 C 19,5 C 3,1 C 83 % 81 % 82 % 1014,5 hPa 0,0 l/m 1,9 km/h (1 Bft) N-NW 337 5 min 0,0 UV-I 13,5 C 19,5 C 2,9 km/h (1 Bft)
24.07.2014 07:20 16,7 C 25,4 C 17,7 C 21,1 C 21,1 C 4,4 C 83 % 81 % 100 % 1014,5 hPa 0,0 l/m 1,4 km/h (1 Bft) NO 45 5 min 0,0 UV-I 13,8 C 21,1 C 0,0 km/h (0 Bft)
24.07.2014 07:25 16,9 C 25,4 C 18,0 C 22,4 C 22,4 C 5,5 C 83 % 81 % 100 % 1014,5 hPa 0,0 l/m 0,5 km/h (0 Bft) N-NO 22 5 min 0,1 UV-I 14,0 C 22,4 C 0,0 km/h (0 Bft)
24.07.2014 07:30 17,5 C 25,4 C 18,1 C 23,0 C 23,0 C 5,5 C 83 % 80 % 100 % 1014,5 hPa 0,0 l/m 0,8 km/h (0 Bft) S-SO 157 5 min 0,7 UV-I 14,6 C 23,0 C 0,0 km/h (0 Bft)
24.07.2014 07:35 17,6 C 25,4 C 18,1 C 23,5 C 23,5 C 5,9 C 82 % 80 % 100 % 1014,4 hPa 0,0 l/m 1,0 km/h (0 Bft) NW 315 5 min 0,1 UV-I 14,5 C 23,5 C 0,0 km/h (0 Bft)
24.07.2014 07:40 18,1 C 25,4 C 18,3 C 24,3 C 24,3 C 6,2 C 81 % 79 % 100 % 1014,4 hPa 0,0 l/m 0,5 km/h (0 Bft) O-NO 67 5 min 0,0 UV-I 14,8 C 24,3 C 1,8 km/h (1 Bft)
24.07.2014 07:45 18,4 C 25,4 C 18,2 C 24,7 C 24,7 C 6,3 C 80 % 79 % 100 % 1014,4 hPa 0,0 l/m 0,6 km/h (0 Bft) NW 315 5 min 0,0 UV-I 14,9 C 24,7 C 3,4 km/h (1 Bft)
24.07.2014 07:50 18,5 C 25,4 C 18,3 C 25,0 C 25,0 C 6,5 C 78 % 79 % 100 % 1014,4 hPa 0,0 l/m 1,1 km/h (1 Bft) N-NW 337 5 min 0,0 UV-I 14,6 C 25,0 C 2,6 km/h (1 Bft)
24.07.2014 07:55 18,4 C 25,4 C 18,2 C 25,3 C 25,3 C 6,9 C 78 % 79 % 100 % 1014,7 hPa 0,0 l/m 1,3 km/h (1 Bft) NW 315 5 min 0,0 UV-I 14,5 C 25,3 C 0,0 km/h (0 Bft)
24.07.2014 08:00 18,4 C 25,4 C 18,3 C 25,9 C 25,9 C 7,5 C 79 % 79 % 100 % 1014,7 hPa 0,0 l/m 1,0 km/h (0 Bft) N-NO 22 5 min 0,0 UV-I 14,7 C 25,9 C 1,6 km/h (1 Bft)
24.07.2014 08:05 18,6 C 25,4 C 18,4 C 26,4 C 26,4 C 7,8 C 78 % 79 % 100 % 1014,7 hPa 0,0 l/m 0,8 km/h (0 Bft) N-NW 337 5 min 0,0 UV-I 14,7 C 26,4 C 3,1 km/h (1 Bft)
24.07.2014 08:10 18,9 C 25,4 C 18,5 C 26,6 C 26,6 C 7,7 C 78 % 79 % 100 % 1014,7 hPa 0,0 l/m 0,8 km/h (0 Bft) NO 45 5 min 0,0 UV-I 15,0 C 26,6 C 0,0 km/h (0 Bft)
24.07.2014 08:15 19,2 C 25,4 C 18,7 C 26,6 C 26,6 C 7,4 C 78 % 79 % 100 % 1014,4 hPa 0,0 l/m 1,6 km/h (1 Bft) NW 315 5 min 0,0 UV-I 15,3 C 26,6 C 4,7 km/h (1 Bft)
24.07.2014 08:20 19,3 C 25,4 C 18,7 C 26,5 C 26,5 C 7,2 C 76 % 78 % 100 % 1014,4 hPa 0,0 l/m 1,8 km/h (1 Bft) O 90 5 min 0,0 UV-I 15,0 C 26,5 C 7,2 km/h (2 Bft)
24.07.2014 08:25 19,6 C 25,4 C 18,9 C 26,9 C 26,9 C 7,3 C 75 % 78 % 100 % 1014,4 hPa 0,0 l/m 1,6 km/h (1 Bft) NW 315 5 min 0,0 UV-I 15,0 C 26,9 C 3,1 km/h (1 Bft)
24.07.2014 08:30 19,6 C 25,4 C 18,9 C 26,7 C 26,7 C 7,1 C 75 % 78 % 100 % 1014,4 hPa 0,0 l/m 1,9 km/h (1 Bft) O-NO 67 5 min 0,0 UV-I 15,0 C 26,7 C 3,5 km/h (1 Bft)
24.07.2014 08:35 19,9 C 25,4 C 19,0 C 26,5 C 26,5 C 6,6 C 75 % 77 % 100 % 1014,0 hPa 0,0 l/m 2,7 km/h (1 Bft) O-SO 112 5 min 0,0 UV-I 15,3 C 26,5 C 6,0 km/h (2 Bft)
24.07.2014 08:40 19,9 C 25,4 C 19,0 C 26,3 C 26,3 C 6,4 C 73 % 76 % 100 % 1014,0 hPa 0,0 l/m 2,9 km/h (1 Bft) N-NW 337 5 min 0,0 UV-I 14,9 C 26,3 C 8,2 km/h (2 Bft)
24.07.2014 08:45 19,9 C 25,4 C 19,1 C 26,5 C 26,5 C 6,6 C 73 % 76 % 100 % 1014,0 hPa 0,0 l/m 2,4 km/h (1 Bft) O-NO 67 5 min 0,0 UV-I 14,9 C 26,5 C 3,1 km/h (1 Bft)
24.07.2014 08:50 20,1 C 25,4 C 19,0 C 26,8 C 26,8 C 6,7 C 72 % 75 % 100 % 1014,0 hPa 0,0 l/m 2,1 km/h (1 Bft) N-NW 337 5 min 0,0 UV-I 14,9 C 26,8 C 6,8 km/h (2 Bft)
24.07.2014 08:55 20,3 C 25,4 C 19,0 C 26,8 C 26,8 C 6,5 C 73 % 76 % 100 % 1014,0 hPa 0,0 l/m 2,1 km/h (1 Bft) O 90 5 min 0,0 UV-I 15,3 C 26,8 C 0,0 km/h (0 Bft)
24.07.2014 09:00 20,3 C 25,4 C 19,1 C 26,5 C 26,5 C 6,2 C 71 % 75 % 100 % 1014,0 hPa 0,0 l/m 2,9 km/h (1 Bft) O 90 5 min 0,0 UV-I 14,9 C 26,5 C 9,7 km/h (2 Bft)
24.07.2014 09:05 20,3 C 25,4 C 19,1 C 26,2 C 26,2 C 5,9 C 71 % 75 % 100 % 1014,0 hPa 0,0 l/m 3,5 km/h (1 Bft) O-NO 67 5 min 0,0 UV-I 14,9 C 26,2 C 3,7 km/h (1 Bft)
24.07.2014 09:10 20,6 C 25,4 C 19,1 C 26,6 C 26,6 C 6,0 C 71 % 75 % 100 % 1014,0 hPa 0,0 l/m 2,4 km/h (1 Bft) O-NO 67 5 min 0,0 UV-I 15,2 C 26,6 C 1,9 km/h (1 Bft)
24.07.2014 09:15 20,6 C 25,4 C 19,2 C 27,1 C 27,1 C 6,5 C 69 % 75 % 100 % 1014,0 hPa 0,0 l/m 1,6 km/h (1 Bft) N-NO 22 5 min 0,0 UV-I 14,7 C 27,1 C 1,8 km/h (1 Bft)
24.07.2014 09:20 20,5 C 25,4 C 19,3 C 27,5 C 27,5 C 7,0 C 70 % 75 % 100 % 1014,0 hPa 0,0 l/m 2,1 km/h (1 Bft) N-NO 22 5 min 0,0 UV-I 14,8 C 27,5 C 4,8 km/h (1 Bft)
24.07.2014 09:25 20,9 C 25,4 C 19,3 C 27,9 C 27,9 C 7,0 C 70 % 74 % 100 % 1014,0 hPa 0,0 l/m 2,3 km/h (1 Bft) O 90 5 min 0,0 UV-I 15,2 C 27,9 C 6,6 km/h (2 Bft)
24.07.2014 09:30 21,0 C 25,4 C 19,6 C 27,7 C 27,7 C 6,7 C 68 % 74 % 100 % 1014,0 hPa 0,0 l/m 2,3 km/h (1 Bft) N-NO 22 5 min 0,0 UV-I 14,9 C 27,7 C 2,4 km/h (1 Bft)
24.07.2014 09:35 20,9 C 25,4 C 19,6 C 27,3 C 27,3 C 6,4 C 67 % 73 % 100 % 1014,1 hPa 0,0 l/m 3,7 km/h (1 Bft) O 90 5 min 0,0 UV-I 14,5 C 27,3 C 7,7 km/h (2 Bft)
24.07.2014 09:40 20,7 C 25,4 C 19,8 C 26,6 C 26,6 C 5,9 C 68 % 73 % 100 % 1014,1 hPa 0,0 l/m 3,7 km/h (1 Bft) NW 315 5 min 0,0 UV-I 14,6 C 26,6 C 5,3 km/h (1 Bft)
24.07.2014 09:45 20,7 C 25,4 C 19,8 C 25,1 C 25,1 C 4,4 C 69 % 73 % 100 % 1014,1 hPa 0,0 l/m 3,1 km/h (1 Bft) O-NO 67 5 min 0,0 UV-I 14,8 C 25,1 C 3,5 km/h (1 Bft)
24.07.2014 09:50 20,5 C 25,4 C 20,0 C 23,3 C 23,3 C 2,8 C 69 % 72 % 74 % 1014,1 hPa 0,0 l/m 4,8 km/h (1 Bft) O-SO 112 0 min 0,0 UV-I 14,6 C 23,3 C 11,6 km/h (2 Bft)
24.07.2014 09:55 20,7 C 25,4 C 20,2 C 22,9 C 22,9 C 2,2 C 69 % 73 % 58 % 1014,2 hPa 0,0 l/m 6,0 km/h (2 Bft) O-NO 67 0 min 0,0 UV-I 14,8 C 22,9 C 4,8 km/h (1 Bft)
24.07.2014 10:00 20,6 C 25,4 C 20,3 C 22,6 C 22,6 C 2,0 C 68 % 71 % 53 % 1014,2 hPa 0,0 l/m 6,4 km/h (2 Bft) O-NO 67 0 min 0,0 UV-I 14,5 C 22,6 C 14,0 km/h (3 Bft)
24.07.2014 10:05 20,7 C 25,4 C 20,4 C 22,1 C 22,1 C 1,4 C 68 % 71 % 37 % 1014,2 hPa 0,0 l/m 7,4 km/h (2 Bft) O-SO 112 0 min 0,0 UV-I 14,6 C 22,1 C 11,3 km/h (2 Bft)
24.07.2014 10:10 20,8 C 25,4 C 20,4 C 22,0 C 22,0 C 1,2 C 68 % 70 % 32 % 1014,2 hPa 0,0 l/m 6,0 km/h (2 Bft) O 90 0 min 0,0 UV-I 14,7 C 22,0 C 2,7 km/h (1 Bft)
24.07.2014 10:15 21,1 C 25,4 C 20,6 C 22,2 C 22,2 C 1,1 C 66 % 69 % 29 % 1014,0 hPa 0,0 l/m 5,8 km/h (2 Bft) O-NO 67 0 min 0,0 UV-I 14,5 C 22,2 C 8,4 km/h (2 Bft)
24.07.2014 10:20 20,9 C 25,4 C 20,6 C 23,0 C 23,0 C 2,1 C 66 % 69 % 55 % 1014,0 hPa 0,0 l/m 6,0 km/h (2 Bft) SO 135 0 min 0,0 UV-I 14,3 C 23,0 C 5,6 km/h (1 Bft)
24.07.2014 10:25 21,1 C 25,4 C 20,9 C 24,1 C 24,1 C 3,0 C 65 % 68 % 79 % 1014,0 hPa 0,0 l/m 6,8 km/h (2 Bft) O-NO 67 0 min 0,0 UV-I 14,3 C 24,1 C 14,0 km/h (3 Bft)
24.07.2014 10:30 21,1 C 25,4 C 20,9 C 24,7 C 24,7 C 3,6 C 66 % 68 % 95 % 1014,0 hPa 0,0 l/m 7,2 km/h (2 Bft) O-SO 112 5 min 0,0 UV-I 14,5 C 24,7 C 15,8 km/h (3 Bft)
24.07.2014 10:35 21,2 C 25,4 C 20,9 C 25,5 C 25,5 C 4,3 C 64 % 67 % 100 % 1013,7 hPa 0,0 l/m 7,2 km/h (2 Bft) O-NO 67 5 min 0,0 UV-I 14,1 C 25,5 C 13,4 km/h (3 Bft)
24.07.2014 10:40 21,2 C 25,4 C 21,0 C 24,7 C 24,7 C 3,5 C 64 % 67 % 92 % 1013,7 hPa 0,0 l/m 8,2 km/h (2 Bft) O 90 5 min 0,0 UV-I 14,1 C 24,7 C 14,8 km/h (3 Bft)
24.07.2014 10:45 21,3 C 25,4 C 21,0 C 25,0 C 25,0 C 3,7 C 66 % 68 % 97 % 1013,7 hPa 0,0 l/m 8,0 km/h (2 Bft) O-NO 67 5 min 0,0 UV-I 14,7 C 25,0 C 6,3 km/h (2 Bft)
24.07.2014 10:50 21,4 C 25,4 C 21,3 C 25,2 C 25,2 C 3,8 C 64 % 66 % 100 % 1013,7 hPa 0,0 l/m 6,9 km/h (2 Bft) O-NO 67 5 min 0,0 UV-I 14,3 C 25,2 C 7,7 km/h (2 Bft)
24.07.2014 10:55 21,5 C 25,4 C 21,3 C 25,1 C 25,1 C 3,6 C 64 % 67 % 95 % 1013,8 hPa 0,0 l/m 6,4 km/h (2 Bft) SW 225 5 min 0,0 UV-I 14,4 C 25,1 C 7,9 km/h (2 Bft)
24.07.2014 11:00 21,5 C 25,4 C 21,5 C 25,1 C 25,1 C 3,6 C 64 % 66 % 95 % 1013,8 hPa 0,0 l/m 7,2 km/h (2 Bft) O-SO 112 5 min 0,0 UV-I 14,4 C 25,1 C 16,1 km/h (3 Bft)
24.07.2014 11:05 21,6 C 25,4 C 21,5 C 25,4 C 25,4 C 3,8 C 64 % 67 % 100 % 1013,8 hPa 0,0 l/m 8,5 km/h (2 Bft) O-SO 112 5 min 0,0 UV-I 14,5 C 25,4 C 6,4 km/h (2 Bft)
24.07.2014 11:10 21,6 C 25,4 C 21,5 C 24,7 C 24,7 C 3,1 C 64 % 66 % 82 % 1013,8 hPa 0,0 l/m 8,2 km/h (2 Bft) O-NO 67 0 min 0,0 UV-I 14,5 C 24,7 C 6,4 km/h (2 Bft)
24.07.2014 11:15 21,4 C 25,4 C 21,5 C 24,5 C 24,5 C 3,1 C 64 % 66 % 82 % 1013,9 hPa 0,0 l/m 7,6 km/h (2 Bft) O-NO 67 0 min 0,0 UV-I 14,3 C 24,5 C 13,2 km/h (3 Bft)
24.07.2014 11:20 21,7 C 25,4 C 22,0 C 25,7 C 25,7 C 4,0 C 64 % 66 % 100 % 1013,9 hPa 0,0 l/m 7,2 km/h (2 Bft) SO 135 5 min 0,0 UV-I 14,6 C 25,7 C 7,9 km/h (2 Bft)
24.07.2014 11:25 21,9 C 25,4 C 22,1 C 25,8 C 25,8 C 3,9 C 64 % 66 % 100 % 1013,9 hPa 0,0 l/m 7,1 km/h (2 Bft) O-NO 67 5 min 0,0 UV-I 14,8 C 25,8 C 6,1 km/h (2 Bft)
24.07.2014 11:30 21,6 C 25,4 C 21,9 C 24,6 C 24,6 C 3,0 C 64 % 65 % 79 % 1013,9 hPa 0,0 l/m 8,0 km/h (2 Bft) O 90 0 min 0,0 UV-I 14,5 C 24,6 C 4,8 km/h (1 Bft)
24.07.2014 11:35 21,9 C 25,4 C 22,2 C 24,7 C 24,7 C 2,8 C 65 % 66 % 74 % 1014,1 hPa 0,0 l/m 6,9 km/h (2 Bft) SO 135 0 min 0,0 UV-I 15,0 C 24,7 C 4,5 km/h (1 Bft)
24.07.2014 11:40 22,0 C 25,4 C 22,2 C 24,8 C 24,8 C 2,8 C 63 % 64 % 74 % 1014,1 hPa 0,0 l/m 3,9 km/h (1 Bft) O 90 0 min 0,0 UV-I 14,6 C 24,8 C 5,5 km/h (1 Bft)
24.07.2014 11:45 21,7 C 24,0 C 22,0 C 24,4 C 24,4 C 2,7 C 63 % 65 % 71 % 1014,1 hPa 0,0 l/m 5,0 km/h (1 Bft) O-SO 112 0 min 0,0 UV-I 14,3 C 24,4 C 9,5 km/h (2 Bft)
24.07.2014 11:50 21,2 C 24,0 C 21,6 C 23,6 C 23,6 C 2,4 C 66 % 66 % 63 % 1014,1 hPa 0,0 l/m 6,8 km/h (2 Bft) O-SO 112 0 min 0,0 UV-I 14,6 C 23,6 C 5,8 km/h (2 Bft)
24.07.2014 11:55 21,4 C 24,0 C 21,8 C 23,8 C 23,8 C 2,4 C 66 % 66 % 63 % 1015,1 hPa 0,0 l/m 5,8 km/h (2 Bft) S-SW 202 0 min 0,0 UV-I 14,8 C 23,8 C 5,1 km/h (1 Bft)
24.07.2014 12:00 21,5 C 24,0 C 21,9 C 24,2 C 24,2 C 2,7 C 65 % 66 % 71 % 1015,1 hPa 0,0 l/m 3,9 km/h (1 Bft) N-NW 337 0 min 0,0 UV-I 14,6 C 24,2 C 3,1 km/h (1 Bft)
24.07.2014 12:05 21,4 C 24,0 C 21,6 C 24,1 C 24,1 C 2,7 C 66 % 66 % 71 % 1015,1 hPa 0,0 l/m 4,2 km/h (1 Bft) O-NO 67 0 min 0,0 UV-I 14,8 C 24,1 C 7,1 km/h (2 Bft)
24.07.2014 12:10 21,2 C 24,0 C 21,5 C 23,9 C 23,9 C 2,7 C 66 % 66 % 71 % 1015,1 hPa 0,0 l/m 4,0 km/h (1 Bft) O 90 0 min 0,0 UV-I 14,6 C 23,9 C 5,0 km/h (1 Bft)
24.07.2014 12:15 21,1 C 24,0 C 21,3 C 23,5 C 23,5 C 2,4 C 66 % 67 % 63 % 1015,2 hPa 0,0 l/m 4,2 km/h (1 Bft) O-NO 67 0 min 0,0 UV-I 14,5 C 23,5 C 4,8 km/h (1 Bft)
24.07.2014 12:20 20,8 C 24,0 C 21,2 C 23,1 C 23,1 C 2,3 C 67 % 67 % 61 % 1015,2 hPa 0,0 l/m 4,3 km/h (1 Bft) O-NO 67 0 min 0,0 UV-I 14,4 C 23,1 C 5,8 km/h (2 Bft)
24.07.2014 12:25 20,7 C 24,0 C 21,0 C 22,8 C 22,8 C 2,1 C 66 % 67 % 55 % 1015,2 hPa 0,0 l/m 5,6 km/h (1 Bft) O 90 0 min 0,0 UV-I 14,1 C 22,8 C 9,8 km/h (2 Bft)
24.07.2014 12:30 20,4 C 24,0 C 20,9 C 22,1 C 22,1 C 1,7 C 68 % 68 % 45 % 1015,2 hPa 0,0 l/m 6,8 km/h (2 Bft) NO 45 0 min 0,0 UV-I 14,3 C 22,1 C 6,9 km/h (2 Bft)
24.07.2014 12:35 20,5 C 24,0 C 20,7 C 22,0 C 22,0 C 1,5 C 68 % 68 % 39 % 1015,6 hPa 0,0 l/m 5,3 km/h (1 Bft) N 360 0 min 0,0 UV-I 14,4 C 22,0 C 4,3 km/h (1 Bft)
24.07.2014 12:40 20,3 C 24,0 C 20,5 C 21,9 C 21,9 C 1,6 C 69 % 69 % 42 % 1015,6 hPa 0,0 l/m 4,3 km/h (1 Bft) O-NO 67 0 min 0,0 UV-I 14,4 C 21,9 C 4,5 km/h (1 Bft)
24.07.2014 12:45 20,2 C 24,1 C 20,4 C 21,5 C 21,5 C 1,3 C 69 % 69 % 34 % 1015,6 hPa 0,0 l/m 5,1 km/h (1 Bft) O-SO 112 0 min 0,0 UV-I 14,3 C 21,5 C 6,1 km/h (2 Bft)
24.07.2014 12:50 20,0 C 24,1 C 20,4 C 21,3 C 21,3 C 1,3 C 70 % 70 % 34 % 1015,6 hPa 0,0 l/m 5,3 km/h (1 Bft) O-NO 67 0 min 0,0 UV-I 14,4 C 21,3 C 6,9 km/h (2 Bft)
24.07.2014 12:55 20,1 C 24,1 C 20,4 C 21,3 C 21,3 C 1,2 C 70 % 70 % 32 % 1015,8 hPa 0,0 l/m 5,1 km/h (1 Bft) O-SO 112 0 min 0,0 UV-I 14,5 C 21,3 C 7,9 km/h (2 Bft)
24.07.2014 13:00 20,0 C 24,1 C 20,4 C 21,3 C 21,3 C 1,3 C 69 % 70 % 34 % 1015,8 hPa 0,0 l/m 5,5 km/h (1 Bft) O-NO 67 0 min 0,0 UV-I 14,1 C 21,3 C 6,4 km/h (2 Bft)
24.07.2014 13:05 20,0 C 24,1 C 20,3 C 21,2 C 21,2 C 1,2 C 69 % 69 % 32 % 1015,8 hPa 0,0 l/m 6,9 km/h (2 Bft) O-NO 67 0 min 0,0 UV-I 14,1 C 21,2 C 8,9 km/h (2 Bft)
24.07.2014 13:10 19,7 C 24,1 C 20,0 C 20,8 C 20,8 C 1,1 C 70 % 70 % 29 % 1015,8 hPa 0,0 l/m 7,2 km/h (2 Bft) O-NO 67 0 min 0,0 UV-I 14,1 C 20,8 C 7,2 km/h (2 Bft)
24.07.2014 13:15 19,7 C 24,1 C 19,9 C 20,8 C 20,8 C 1,1 C 70 % 71 % 29 % 1015,5 hPa 0,0 l/m 6,9 km/h (2 Bft) O-NO 67 0 min 0,0 UV-I 14,1 C 20,8 C 4,8 km/h (1 Bft)
24.07.2014 13:20 19,5 C 24,1 C 19,8 C 20,5 C 20,5 C 1,0 C 72 % 72 % 26 % 1015,5 hPa 0,0 l/m 6,1 km/h (2 Bft) O-SO 112 0 min 0,0 UV-I 14,3 C 20,5 C 3,5 km/h (1 Bft)
24.07.2014 13:25 19,2 C 24,1 C 19,5 C 19,3 C 19,3 C 0,1 C 74 % 74 % 3 % 1015,5 hPa 0,0 l/m 6,1 km/h (2 Bft) O 90 0 min 0,0 UV-I 14,4 C 19,3 C 9,0 km/h (2 Bft)
24.07.2014 13:30 18,6 C 24,1 C 19,1 C 18,4 C 18,0 C 0,0 C 76 % 75 % 0 % 1015,5 hPa 0,0 l/m 6,1 km/h (2 Bft) O-NO 67 0 min 0,0 UV-I 14,3 C 18,0 C 5,8 km/h (2 Bft)
24.07.2014 13:35 18,4 C 24,1 C 18,8 C 18,1 C 17,5 C 0,0 C 77 % 77 % 0 % 1015,4 hPa 0,0 l/m 6,1 km/h (2 Bft) O-NO 67 0 min 0,0 UV-I 14,3 C 17,5 C 8,9 km/h (2 Bft)
24.07.2014 13:40 18,1 C 24,3 C 18,6 C 17,8 C 17,1 C 0,0 C 79 % 78 % 0 % 1015,4 hPa 0,0 l/m 4,0 km/h (1 Bft) O-NO 67 0 min 0,0 UV-I 14,4 C 17,1 C 2,4 km/h (1 Bft)
24.07.2014 13:45 18,1 C 24,3 C 18,7 C 17,8 C 17,1 C 0,0 C 80 % 79 % 0 % 1015,4 hPa 0,0 l/m 2,3 km/h (1 Bft) NO 45 0 min 0,0 UV-I 14,6 C 17,1 C 0,0 km/h (0 Bft)
24.07.2014 13:50 18,0 C 24,3 C 18,6 C 17,7 C 17,2 C 0,0 C 82 % 80 % 0 % 1015,4 hPa 0,0 l/m 0,8 km/h (0 Bft) O-NO 67 0 min 0,0 UV-I 14,9 C 17,2 C 0,0 km/h (0 Bft)
24.07.2014 13:55 18,0 C 24,3 C 18,5 C 17,8 C 17,3 C 0,0 C 82 % 80 % 0 % 1015,3 hPa 0,0 l/m 0,8 km/h (0 Bft) O-NO 67 0 min 0,0 UV-I 14,9 C 17,3 C 1,9 km/h (1 Bft)
24.07.2014 14:00 17,9 C 24,3 C 18,6 C 17,8 C 17,5 C 0,0 C 83 % 80 % 0 % 1015,3 hPa 0,0 l/m 0,6 km/h (0 Bft) SO 135 0 min 0,0 UV-I 15,0 C 17,5 C 0,0 km/h (0 Bft)
24.07.2014 14:05 17,9 C 24,3 C 18,7 C 17,8 C 17,7 C 0,0 C 83 % 81 % 0 % 1015,3 hPa 0,0 l/m 1,1 km/h (1 Bft) NO 45 0 min 0,0 UV-I 15,0 C 17,7 C 1,6 km/h (1 Bft)
24.07.2014 14:10 17,9 C 24,3 C 18,7 C 18,0 C 18,0 C 0,1 C 83 % 81 % 3 % 1015,3 hPa 0,0 l/m 1,1 km/h (1 Bft) O 90 0 min 0,0 UV-I 15,0 C 18,0 C 2,9 km/h (1 Bft)
24.07.2014 14:15 17,7 C 24,4 C 18,7 C 18,0 C 18,0 C 0,3 C 84 % 82 % 8 % 1014,9 hPa 0,0 l/m 1,0 km/h (0 Bft) N-NW 337 0 min 0,0 UV-I 15,0 C 18,0 C 2,6 km/h (1 Bft)
24.07.2014 14:20 17,6 C 24,5 C 18,5 C 18,2 C 18,2 C 0,6 C 84 % 83 % 16 % 1014,9 hPa 0,0 l/m 1,3 km/h (1 Bft) W-NW 292 0 min 0,0 UV-I 14,9 C 18,2 C 3,4 km/h (1 Bft)
24.07.2014 14:25 17,6 C 24,5 C 18,5 C 18,0 C 18,0 C 0,4 C 84 % 84 % 11 % 1014,9 hPa 0,7 l/m 1,4 km/h (1 Bft) N-NO 22 0 min 0,0 UV-I 14,9 C 18,0 C 0,0 km/h (0 Bft)
24.07.2014 14:30 17,6 C 24,5 C 18,4 C 18,3 C 18,3 C 0,7 C 85 % 86 % 18 % 1014,9 hPa 0,0 l/m 1,1 km/h (1 Bft) NW 315 0 min 0,0 UV-I 15,0 C 18,3 C 0,0 km/h (0 Bft)
24.07.2014 14:35 17,7 C 24,5 C 18,4 C 18,5 C 18,5 C 0,8 C 85 % 86 % 21 % 1014,6 hPa 0,0 l/m 0,5 km/h (0 Bft) W-SW 247 0 min 0,0 UV-I 15,1 C 18,5 C 0,0 km/h (0 Bft)
24.07.2014 14:40 17,8 C 24,4 C 18,4 C 18,8 C 18,8 C 1,0 C 84 % 86 % 26 % 1014,6 hPa 0,0 l/m 0,8 km/h (0 Bft) NW 315 0 min 0,0 UV-I 15,1 C 18,8 C 5,1 km/h (1 Bft)
24.07.2014 14:45 17,9 C 24,4 C 18,4 C 19,2 C 19,2 C 1,3 C 83 % 87 % 34 % 1014,6 hPa 0,0 l/m 1,4 km/h (1 Bft) O-NO 67 0 min 0,0 UV-I 15,0 C 19,2 C 8,7 km/h (2 Bft)
24.07.2014 14:50 18,1 C 24,4 C 18,4 C 19,8 C 19,8 C 1,7 C 83 % 87 % 45 % 1014,6 hPa 0,0 l/m 1,6 km/h (1 Bft) W-NW 292 0 min 0,0 UV-I 15,2 C 19,8 C 0,0 km/h (0 Bft)
24.07.2014 14:55 18,1 C 24,4 C 18,5 C 20,3 C 20,3 C 2,2 C 83 % 87 % 58 % 1014,5 hPa 0,0 l/m 1,3 km/h (1 Bft) N-NW 337 0 min 0,0 UV-I 15,2 C 20,3 C 0,0 km/h (0 Bft)
24.07.2014 15:00 18,4 C 24,3 C 18,5 C 20,9 C 20,9 C 2,5 C 83 % 87 % 66 % 1014,5 hPa 0,0 l/m 1,0 km/h (0 Bft) SO 135 0 min 0,0 UV-I 15,5 C 20,9 C 0,0 km/h (0 Bft)
24.07.2014 15:05 18,5 C 24,3 C 18,6 C 21,2 C 21,2 C 2,7 C 83 % 87 % 71 % 1014,5 hPa 0,0 l/m 1,0 km/h (0 Bft) N-NO 22 0 min 0,0 UV-I 15,6 C 21,2 C 0,0 km/h (0 Bft)
24.07.2014 15:10 18,8 C 24,3 C 18,9 C 21,9 C 21,9 C 3,1 C 83 % 87 % 82 % 1014,5 hPa 0,0 l/m 1,1 km/h (1 Bft) N-NW 337 0 min 0,0 UV-I 15,8 C 21,9 C 6,0 km/h (2 Bft)
24.07.2014 15:15 19,0 C 24,2 C 18,9 C 22,1 C 22,1 C 3,1 C 82 % 87 % 82 % 1014,6 hPa 0,0 l/m 1,6 km/h (1 Bft) NW 315 0 min 0,0 UV-I 15,9 C 22,1 C 4,7 km/h (1 Bft)
24.07.2014 15:20 19,2 C 24,2 C 19,1 C 22,6 C 22,6 C 3,4 C 81 % 88 % 89 % 1014,6 hPa 0,0 l/m 1,3 km/h (1 Bft) NW 315 5 min 0,0 UV-I 15,9 C 22,6 C 1,6 km/h (1 Bft)
24.07.2014 15:25 19,5 C 24,2 C 19,2 C 22,9 C 22,9 C 3,4 C 81 % 87 % 89 % 1014,6 hPa 0,0 l/m 1,9 km/h (1 Bft) N-NW 337 5 min 0,0 UV-I 16,1 C 22,9 C 4,0 km/h (1 Bft)
24.07.2014 15:30 19,8 C 24,2 C 19,7 C 23,6 C 23,6 C 3,8 C 80 % 87 % 100 % 1014,6 hPa 0,0 l/m 2,7 km/h (1 Bft) N-NW 337 5 min 0,0 UV-I 16,2 C 23,6 C 3,2 km/h (1 Bft)
24.07.2014 15:35 19,9 C 24,2 C 19,9 C 24,1 C 24,1 C 4,2 C 79 % 87 % 100 % 1014,3 hPa 0,0 l/m 2,3 km/h (1 Bft) N-NW 337 5 min 0,0 UV-I 16,1 C 24,1 C 3,4 km/h (1 Bft)
24.07.2014 15:40 20,3 C 24,1 C 20,1 C 25,0 C 25,0 C 4,7 C 79 % 87 % 100 % 1014,3 hPa 0,0 l/m 1,8 km/h (1 Bft) NW 315 5 min 0,0 UV-I 16,5 C 25,0 C 3,4 km/h (1 Bft)
24.07.2014 15:45 20,4 C 24,2 C 20,2 C 24,6 C 24,6 C 4,2 C 77 % 86 % 100 % 1014,3 hPa 0,0 l/m 1,9 km/h (1 Bft) S 180 5 min 0,0 UV-I 16,2 C 24,6 C 3,9 km/h (1 Bft)
24.07.2014 15:50 20,3 C 24,2 C 20,1 C 23,7 C 23,7 C 3,4 C 77 % 84 % 89 % 1014,3 hPa 0,0 l/m 2,9 km/h (1 Bft) N-NO 22 5 min 0,0 UV-I 16,1 C 23,7 C 6,9 km/h (2 Bft)
24.07.2014 15:55 20,3 C 24,1 C 20,0 C 23,0 C 23,0 C 2,7 C 77 % 84 % 71 % 1014,1 hPa 0,0 l/m 3,4 km/h (1 Bft) N-NO 22 0 min 0,0 UV-I 16,1 C 23,0 C 5,8 km/h (2 Bft)
24.07.2014 16:00 20,0 C 24,1 C 19,8 C 21,9 C 21,9 C 1,9 C 77 % 84 % 50 % 1014,1 hPa 0,0 l/m 3,4 km/h (1 Bft) SO 135 0 min 0,0 UV-I 15,8 C 21,9 C 0,0 km/h (0 Bft)
24.07.2014 16:05 19,9 C 24,2 C 19,7 C 21,3 C 21,3 C 1,4 C 78 % 84 % 37 % 1014,1 hPa 0,0 l/m 3,2 km/h (1 Bft) NW 315 0 min 0,0 UV-I 15,9 C 21,3 C 3,4 km/h (1 Bft)
24.07.2014 16:10 19,9 C 24,2 C 19,5 C 20,7 C 20,7 C 0,8 C 78 % 85 % 21 % 1014,1 hPa 0,0 l/m 2,4 km/h (1 Bft) N 360 0 min 0,0 UV-I 15,9 C 20,7 C 3,4 km/h (1 Bft)
24.07.2014 16:15 19,7 C 24,2 C 19,5 C 20,3 C 20,3 C 0,6 C 79 % 84 % 16 % 1013,8 hPa 0,0 l/m 2,4 km/h (1 Bft) NW 315 0 min 0,0 UV-I 16,0 C 20,3 C 6,3 km/h (2 Bft)
24.07.2014 16:20 19,5 C 24,1 C 19,5 C 20,3 C 20,3 C 0,8 C 78 % 84 % 21 % 1013,8 hPa 0,0 l/m 2,9 km/h (1 Bft) N-NO 22 0 min 0,0 UV-I 15,6 C 20,3 C 3,1 km/h (1 Bft)
24.07.2014 16:25 19,5 C 24,1 C 19,4 C 20,5 C 20,5 C 1,0 C 78 % 83 % 26 % 1013,8 hPa 0,0 l/m 3,2 km/h (1 Bft) N-NW 337 0 min 0,0 UV-I 15,6 C 20,5 C 3,7 km/h (1 Bft)
24.07.2014 16:30 19,5 C 24,1 C 19,5 C 20,7 C 20,7 C 1,2 C 79 % 83 % 32 % 1013,8 hPa 0,0 l/m 3,4 km/h (1 Bft) N 360 0 min 0,0 UV-I 15,8 C 20,7 C 2,6 km/h (1 Bft)
24.07.2014 16:35 19,5 C 24,1 C 19,6 C 20,9 C 20,9 C 1,4 C 79 % 83 % 37 % 1013,6 hPa 0,0 l/m 3,2 km/h (1 Bft) NW 315 0 min 0,0 UV-I 15,8 C 20,9 C 3,7 km/h (1 Bft)
24.07.2014 16:40 19,4 C 24,1 C 19,5 C 21,0 C 21,0 C 1,6 C 79 % 83 % 42 % 1013,6 hPa 0,0 l/m 2,7 km/h (1 Bft) NW 315 0 min 0,0 UV-I 15,7 C 21,0 C 2,7 km/h (1 Bft)
24.07.2014 16:45 19,5 C 24,1 C 19,5 C 21,0 C 21,0 C 1,5 C 79 % 83 % 39 % 1013,6 hPa 0,0 l/m 3,4 km/h (1 Bft) W-SW 247 0 min 0,0 UV-I 15,8 C 21,0 C 3,4 km/h (1 Bft)
24.07.2014 16:50 19,5 C 24,1 C 19,5 C 21,0 C 21,0 C 1,5 C 79 % 83 % 39 % 1013,6 hPa 0,0 l/m 2,4 km/h (1 Bft) NW 315 0 min 0,0 UV-I 15,8 C 21,0 C 4,8 km/h (1 Bft)
24.07.2014 16:55 19,5 C 24,1 C 19,5 C 21,0 C 21,0 C 1,5 C 80 % 83 % 39 % 1013,6 hPa 0,0 l/m 2,3 km/h (1 Bft) N-NO 22 0 min 0,0 UV-I 16,0 C 21,0 C 2,9 km/h (1 Bft)
24.07.2014 17:00 19,5 C 24,1 C 19,6 C 21,1 C 21,1 C 1,6 C 80 % 83 % 42 % 1013,6 hPa 0,0 l/m 2,9 km/h (1 Bft) NW 315 0 min 0,0 UV-I 16,0 C 21,1 C 0,0 km/h (0 Bft)
24.07.2014 17:05 19,6 C 24,1 C 19,9 C 21,5 C 21,5 C 1,9 C 79 % 83 % 50 % 1013,6 hPa 0,0 l/m 2,7 km/h (1 Bft) N-NW 337 0 min 0,0 UV-I 15,9 C 21,5 C 0,0 km/h (0 Bft)
24.07.2014 17:10 19,7 C 24,1 C 20,0 C 22,2 C 22,2 C 2,5 C 79 % 83 % 66 % 1013,6 hPa 0,0 l/m 1,8 km/h (1 Bft) SO 135 0 min 0,0 UV-I 16,0 C 22,2 C 1,8 km/h (1 Bft)
24.07.2014 17:15 19,8 C 24,1 C 20,1 C 22,4 C 22,4 C 2,6 C 79 % 83 % 68 % 1013,4 hPa 0,0 l/m 1,9 km/h (1 Bft) NW 315 0 min 0,0 UV-I 16,0 C 22,4 C 3,1 km/h (1 Bft)
24.07.2014 17:20 19,8 C 24,1 C 19,8 C 22,4 C 22,4 C 2,6 C 78 % 81 % 68 % 1013,4 hPa 0,0 l/m 2,3 km/h (1 Bft) N-NW 337 0 min 0,0 UV-I 15,8 C 22,4 C 5,5 km/h (1 Bft)
24.07.2014 17:25 19,9 C 24,1 C 19,7 C 21,9 C 21,9 C 2,0 C 78 % 81 % 53 % 1013,4 hPa 0,0 l/m 2,9 km/h (1 Bft) SO 135 0 min 0,0 UV-I 15,9 C 21,9 C 3,4 km/h (1 Bft)
24.07.2014 17:30 19,6 C 24,1 C 19,6 C 21,2 C 21,2 C 1,6 C 79 % 81 % 42 % 1013,4 hPa 0,0 l/m 3,9 km/h (1 Bft) N-NW 337 0 min 0,0 UV-I 15,9 C 21,2 C 4,0 km/h (1 Bft)
24.07.2014 17:35 19,6 C 24,1 C 19,4 C 20,7 C 20,7 C 1,1 C 79 % 82 % 29 % 1013,0 hPa 0,0 l/m 3,5 km/h (1 Bft) O 90 0 min 0,0 UV-I 15,9 C 20,7 C 3,1 km/h (1 Bft)
24.07.2014 17:40 19,5 C 24,2 C 19,4 C 20,0 C 20,0 C 0,5 C 79 % 83 % 13 % 1013,0 hPa 0,0 l/m 2,3 km/h (1 Bft) N-NO 22 0 min 0,0 UV-I 15,8 C 20,0 C 0,0 km/h (0 Bft)
24.07.2014 17:45 19,5 C 24,1 C 19,3 C 19,7 C 19,7 C 0,2 C 79 % 82 % 5 % 1013,0 hPa 0,0 l/m 1,8 km/h (1 Bft) NO 45 0 min 0,0 UV-I 15,8 C 19,7 C 3,1 km/h (1 Bft)
24.07.2014 17:50 19,2 C 24,2 C 19,2 C 19,3 C 19,3 C 0,1 C 80 % 83 % 3 % 1013,0 hPa 0,0 l/m 2,4 km/h (1 Bft) O-NO 67 0 min 0,0 UV-I 15,7 C 19,3 C 2,9 km/h (1 Bft)
24.07.2014 17:55 19,2 C 24,2 C 19,1 C 19,1 C 18,9 C 0,0 C 80 % 83 % 0 % 1013,1 hPa 0,0 l/m 2,9 km/h (1 Bft) SO 135 0 min 0,0 UV-I 15,7 C 18,9 C 4,2 km/h (1 Bft)
24.07.2014 18:00 19,1 C 24,2 C 19,0 C 19,0 C 18,9 C 0,0 C 80 % 83 % 0 % 1013,1 hPa 0,0 l/m 3,4 km/h (1 Bft) O 90 0 min 0,0 UV-I 15,6 C 18,9 C 5,3 km/h (1 Bft)
24.07.2014 18:05 19,0 C 24,2 C 19,1 C 19,1 C 19,1 C 0,1 C 81 % 83 % 3 % 1013,1 hPa 0,0 l/m 3,4 km/h (1 Bft) NO 45 0 min 0,0 UV-I 15,7 C 19,1 C 3,9 km/h (1 Bft)
24.07.2014 18:10 19,0 C 24,2 C 19,1 C 19,3 C 19,3 C 0,3 C 80 % 83 % 8 % 1013,1 hPa 0,0 l/m 3,2 km/h (1 Bft) O-NO 67 0 min 0,0 UV-I 15,5 C 19,3 C 3,2 km/h (1 Bft)
24.07.2014 18:15 18,9 C 24,1 C 19,1 C 19,3 C 19,3 C 0,4 C 80 % 83 % 11 % 1013,3 hPa 0,0 l/m 3,2 km/h (1 Bft) O-NO 67 0 min 0,0 UV-I 15,4 C 19,3 C 3,2 km/h (1 Bft)
24.07.2014 18:20 18,9 C 24,1 C 18,9 C 19,3 C 19,3 C 0,4 C 80 % 82 % 11 % 1013,3 hPa 0,0 l/m 3,1 km/h (1 Bft) O-SO 112 0 min 0,0 UV-I 15,4 C 19,3 C 2,3 km/h (1 Bft)
24.07.2014 18:25 18,9 C 24,1 C 18,9 C 19,2 C 19,2 C 0,3 C 80 % 82 % 8 % 1013,3 hPa 0,0 l/m 2,9 km/h (1 Bft) O-NO 67 0 min 0,0 UV-I 15,4 C 19,2 C 4,5 km/h (1 Bft)
24.07.2014 18:30 18,8 C 24,1 C 18,9 C 19,2 C 19,2 C 0,4 C 80 % 82 % 11 % 1013,3 hPa 0,0 l/m 2,7 km/h (1 Bft) SO 135 0 min 0,0 UV-I 15,3 C 19,2 C 2,1 km/h (1 Bft)
24.07.2014 18:35 18,8 C 24,1 C 18,8 C 19,3 C 19,3 C 0,5 C 80 % 82 % 13 % 1013,3 hPa 0,0 l/m 2,9 km/h (1 Bft) O-NO 67 0 min 0,0 UV-I 15,3 C 19,3 C 2,7 km/h (1 Bft)
24.07.2014 18:40 18,9 C 24,1 C 18,9 C 19,2 C 19,2 C 0,3 C 79 % 81 % 8 % 1013,3 hPa 0,0 l/m 1,9 km/h (1 Bft) O-NO 67 0 min 0,0 UV-I 15,2 C 19,2 C 3,7 km/h (1 Bft)
24.07.2014 18:45 18,9 C 24,1 C 18,9 C 19,2 C 19,2 C 0,3 C 79 % 81 % 8 % 1013,3 hPa 0,0 l/m 1,3 km/h (1 Bft) O-NO 67 0 min 0,0 UV-I 15,2 C 19,2 C 2,7 km/h (1 Bft)
24.07.2014 18:50 18,9 C 24,1 C 18,8 C 19,2 C 19,2 C 0,3 C 78 % 80 % 8 % 1013,3 hPa 0,0 l/m 1,4 km/h (1 Bft) S 180 0 min 0,0 UV-I 15,0 C 19,2 C 3,2 km/h (1 Bft)
24.07.2014 18:55 18,8 C 24,1 C 18,8 C 19,2 C 19,2 C 0,4 C 78 % 80 % 11 % 1013,3 hPa 0,0 l/m 1,9 km/h (1 Bft) O-SO 112 0 min 0,0 UV-I 14,9 C 19,2 C 3,9 km/h (1 Bft)
24.07.2014 19:00 18,8 C 24,1 C 18,8 C 19,3 C 19,3 C 0,5 C 78 % 79 % 13 % 1013,3 hPa 0,0 l/m 3,1 km/h (1 Bft) O-NO 67 0 min 0,0 UV-I 14,9 C 19,3 C 4,0 km/h (1 Bft)
24.07.2014 19:05 18,8 C 24,1 C 18,8 C 19,4 C 19,4 C 0,6 C 78 % 80 % 16 % 1013,3 hPa 0,0 l/m 2,9 km/h (1 Bft) NO 45 0 min 0,0 UV-I 14,9 C 19,4 C 3,4 km/h (1 Bft)
24.07.2014 19:10 18,9 C 24,1 C 18,8 C 19,4 C 19,4 C 0,5 C 78 % 79 % 13 % 1013,3 hPa 0,0 l/m 2,4 km/h (1 Bft) N-NO 22 0 min 0,0 UV-I 15,0 C 19,4 C 3,5 km/h (1 Bft)
24.07.2014 19:15 18,9 C 24,1 C 18,8 C 19,4 C 19,4 C 0,5 C 78 % 80 % 13 % 1012,4 hPa 0,0 l/m 2,1 km/h (1 Bft) O-NO 67 0 min 0,0 UV-I 15,0 C 19,4 C 3,5 km/h (1 Bft)
24.07.2014 19:20 18,8 C 24,1 C 18,8 C 19,3 C 19,3 C 0,5 C 78 % 80 % 13 % 1012,4 hPa 0,0 l/m 2,3 km/h (1 Bft) O-NO 67 0 min 0,0 UV-I 14,9 C 19,3 C 1,9 km/h (1 Bft)
24.07.2014 19:25 18,9 C 24,1 C 18,7 C 19,3 C 19,3 C 0,4 C 78 % 80 % 11 % 1012,4 hPa 0,0 l/m 2,6 km/h (1 Bft) O 90 0 min 0,0 UV-I 15,0 C 19,3 C 3,2 km/h (1 Bft)
24.07.2014 19:30 18,7 C 24,1 C 18,7 C 19,3 C 19,3 C 0,6 C 78 % 80 % 16 % 1012,4 hPa 0,0 l/m 2,3 km/h (1 Bft) N 360 0 min 0,0 UV-I 14,8 C 19,3 C 1,8 km/h (1 Bft)
24.07.2014 19:35 18,6 C 24,1 C 18,7 C 19,2 C 19,2 C 0,6 C 79 % 80 % 16 % 1012,8 hPa 0,0 l/m 2,1 km/h (1 Bft) N-NW 337 0 min 0,0 UV-I 14,9 C 19,2 C 0,0 km/h (0 Bft)
24.07.2014 19:40 18,5 C 24,1 C 18,4 C 18,9 C 18,9 C 0,4 C 80 % 80 % 11 % 1012,8 hPa 0,0 l/m 1,3 km/h (1 Bft) W 270 0 min 0,0 UV-I 15,0 C 18,9 C 3,1 km/h (1 Bft)
24.07.2014 19:45 18,5 C 24,1 C 18,3 C 18,7 C 18,7 C 0,2 C 80 % 81 % 5 % 1012,8 hPa 0,0 l/m 1,3 km/h (1 Bft) NO 45 0 min 0,0 UV-I 15,0 C 18,7 C 4,2 km/h (1 Bft)
24.07.2014 19:50 18,3 C 24,2 C 18,2 C 18,3 C 18,2 C 0,0 C 80 % 81 % 0 % 1012,8 hPa 0,0 l/m 1,8 km/h (1 Bft) O-NO 67 0 min 0,0 UV-I 14,8 C 18,2 C 3,2 km/h (1 Bft)
24.07.2014 19:55 18,2 C 24,2 C 18,0 C 18,1 C 18,0 C 0,0 C 82 % 82 % 0 % 1013,0 hPa 0,0 l/m 2,1 km/h (1 Bft) O-SO 112 0 min 0,0 UV-I 15,1 C 18,0 C 0,0 km/h (0 Bft)
24.07.2014 20:00 18,0 C 24,2 C 17,9 C 17,9 C 17,8 C 0,0 C 82 % 82 % 0 % 1013,0 hPa 0,0 l/m 1,3 km/h (1 Bft) NO 45 0 min 0,0 UV-I 14,9 C 17,8 C 2,3 km/h (1 Bft)
24.07.2014 20:05 17,9 C 24,2 C 17,9 C 17,8 C 17,6 C 0,0 C 83 % 83 % 0 % 1013,0 hPa 0,0 l/m 1,3 km/h (1 Bft) N-NW 337 0 min 0,0 UV-I 15,0 C 17,6 C 6,8 km/h (2 Bft)
24.07.2014 20:10 17,6 C 24,3 C 17,7 C 17,5 C 17,4 C 0,0 C 83 % 83 % 0 % 1013,0 hPa 0,0 l/m 2,3 km/h (1 Bft) N-NW 337 0 min 0,0 UV-I 14,7 C 17,4 C 0,0 km/h (0 Bft)
24.07.2014 20:15 17,5 C 24,3 C 17,6 C 17,4 C 17,3 C 0,0 C 84 % 84 % 0 % 1012,8 hPa 0,0 l/m 2,6 km/h (1 Bft) NW 315 0 min 0,0 UV-I 14,8 C 17,3 C 4,0 km/h (1 Bft)
24.07.2014 20:20 17,1 C 24,3 C 17,5 C 17,0 C 16,9 C 0,0 C 84 % 84 % 0 % 1012,8 hPa 0,0 l/m 1,9 km/h (1 Bft) NW 315 0 min 0,0 UV-I 14,4 C 16,9 C 3,5 km/h (1 Bft)
24.07.2014 20:25 16,9 C 24,3 C 17,3 C 16,8 C 16,6 C 0,0 C 85 % 84 % 0 % 1012,8 hPa 0,0 l/m 2,3 km/h (1 Bft) W-NW 292 0 min 0,0 UV-I 14,4 C 16,6 C 4,5 km/h (1 Bft)
24.07.2014 20:30 16,7 C 24,3 C 17,3 C 16,6 C 16,4 C 0,0 C 85 % 85 % 0 % 1012,8 hPa 0,0 l/m 2,1 km/h (1 Bft) N-NO 22 0 min 0,0 UV-I 14,2 C 16,4 C 0,0 km/h (0 Bft)
24.07.2014 20:35 16,6 C 24,3 C 17,1 C 16,5 C 16,4 C 0,0 C 85 % 85 % 0 % 1013,1 hPa 0,0 l/m 1,6 km/h (1 Bft) NW 315 0 min 0,0 UV-I 14,1 C 16,4 C 0,0 km/h (0 Bft)
24.07.2014 20:40 16,4 C 24,3 C 17,1 C 16,4 C 16,3 C 0,0 C 85 % 86 % 0 % 1013,1 hPa 0,0 l/m 0,6 km/h (0 Bft) NW 315 0 min 0,0 UV-I 13,9 C 16,3 C 2,1 km/h (1 Bft)
24.07.2014 20:45 16,3 C 24,4 C 17,1 C 16,3 C 16,3 C 0,0 C 85 % 86 % 0 % 1013,1 hPa 0,0 l/m 1,0 km/h (0 Bft) NW 315 0 min 0,0 UV-I 13,8 C 16,3 C 4,2 km/h (1 Bft)
24.07.2014 20:50 16,1 C 24,4 C 17,1 C 16,3 C 16,3 C 0,2 C 86 % 86 % 5 % 1013,1 hPa 0,0 l/m 1,9 km/h (1 Bft) N-NW 337 0 min 0,0 UV-I 13,8 C 16,3 C 3,2 km/h (1 Bft)
24.07.2014 20:55 16,0 C 24,5 C 17,1 C 16,3 C 16,3 C 0,3 C 86 % 86 % 0 % 1012,6 hPa 0,0 l/m 1,6 km/h (1 Bft) W 270 0 min 0,0 UV-I 13,7 C 16,3 C 0,0 km/h (0 Bft)
24.07.2014 21:00 16,1 C 24,5 C 17,0 C 16,3 C 16,3 C 0,2 C 86 % 86 % 0 % 1012,6 hPa 0,0 l/m 0,8 km/h (0 Bft) N-NW 337 0 min 0,0 UV-I 13,8 C 16,3 C 0,0 km/h (0 Bft)
24.07.2014 21:05 16,0 C 24,5 C 17,1 C 16,3 C 16,3 C 0,3 C 86 % 86 % 0 % 1012,6 hPa 0,0 l/m 0,3 km/h (0 Bft) N-NW 337 0 min 0,0 UV-I 13,7 C 16,3 C 2,1 km/h (1 Bft)
24.07.2014 21:10 16,0 C 24,4 C 17,0 C 16,4 C 16,4 C 0,4 C 86 % 86 % 0 % 1012,6 hPa 0,0 l/m 0,5 km/h (0 Bft) N-NO 22 0 min 0,0 UV-I 13,7 C 16,4 C 0,0 km/h (0 Bft)
24.07.2014 21:15 15,9 C 24,4 C 17,1 C 16,4 C 16,4 C 0,5 C 86 % 86 % 0 % 1012,4 hPa 0,0 l/m 0,6 km/h (0 Bft) W-NW 292 0 min 0,0 UV-I 13,6 C 16,4 C 1,8 km/h (1 Bft)
24.07.2014 21:20 15,9 C 24,5 C 17,1 C 16,4 C 16,4 C 0,5 C 86 % 86 % 0 % 1012,4 hPa 0,0 l/m 0,0 km/h (0 Bft) O-SO 112 0 min 0,0 UV-I 13,6 C 16,4 C 0,0 km/h (0 Bft)
24.07.2014 21:25 15,9 C 24,4 C 17,1 C 16,5 C 16,5 C 0,6 C 86 % 86 % 0 % 1012,4 hPa 0,0 l/m 0,2 km/h (0 Bft) N-NO 22 0 min 0,0 UV-I 13,6 C 16,5 C 2,1 km/h (1 Bft)
24.07.2014 21:30 15,9 C 24,4 C 17,0 C 16,6 C 16,6 C 0,7 C 86 % 86 % 0 % 1012,4 hPa 0,0 l/m 0,3 km/h (0 Bft) W 270 0 min 0,0 UV-I 13,6 C 16,6 C 0,0 km/h (0 Bft)
24.07.2014 21:35 15,9 C 24,4 C 17,1 C 16,6 C 16,6 C 0,7 C 86 % 86 % 0 % 1012,4 hPa 0,0 l/m 0,5 km/h (0 Bft) SW 225 0 min 0,0 UV-I 13,6 C 16,6 C 0,0 km/h (0 Bft)
24.07.2014 21:40 15,9 C 24,3 C 17,1 C 16,7 C 16,7 C 0,8 C 86 % 86 % 0 % 1012,4 hPa 0,0 l/m 0,2 km/h (0 Bft) S 180 0 min 0,0 UV-I 13,6 C 16,7 C 0,0 km/h (0 Bft)
24.07.2014 21:45 15,9 C 24,4 C 17,0 C 16,7 C 16,7 C 0,8 C 87 % 86 % 0 % 1012,4 hPa 0,0 l/m 0,0 km/h (0 Bft) N-NW 337 0 min 0,0 UV-I 13,7 C 16,7 C 0,0 km/h (0 Bft)
24.07.2014 21:50 15,9 C 24,4 C 17,1 C 16,6 C 16,6 C 0,7 C 87 % 86 % 0 % 1012,4 hPa 0,0 l/m 0,6 km/h (0 Bft) NW 315 0 min 0,0 UV-I 13,7 C 16,6 C 0,0 km/h (0 Bft)
24.07.2014 21:55 15,8 C 24,4 C 17,1 C 16,4 C 16,4 C 0,6 C 87 % 86 % 0 % 1012,6 hPa 0,0 l/m 0,8 km/h (0 Bft) NW 315 0 min 0,0 UV-I 13,6 C 16,4 C 0,0 km/h (0 Bft)
24.07.2014 22:00 15,8 C 24,5 C 16,9 C 16,3 C 16,3 C 0,5 C 87 % 86 % 0 % 1012,6 hPa 0,0 l/m 0,6 km/h (0 Bft) W 270 0 min 0,0 UV-I 13,6 C 16,3 C 4,8 km/h (1 Bft)
24.07.2014 22:05 15,8 C 24,5 C 16,8 C 16,3 C 16,3 C 0,5 C 87 % 87 % 0 % 1012,6 hPa 0,0 l/m 0,8 km/h (0 Bft) NW 315 0 min 0,0 UV-I 13,6 C 16,3 C 1,8 km/h (1 Bft)
24.07.2014 22:10 15,9 C 24,5 C 16,8 C 16,3 C 16,3 C 0,4 C 87 % 87 % 0 % 1012,6 hPa 0,0 l/m 1,0 km/h (0 Bft) W-NW 292 0 min 0,0 UV-I 13,7 C 16,3 C 1,8 km/h (1 Bft)
24.07.2014 22:15 15,8 C 24,5 C 16,8 C 16,2 C 16,2 C 0,4 C 88 % 87 % 0 % 1012,4 hPa 0,0 l/m 0,6 km/h (0 Bft) W-NW 292 0 min 0,0 UV-I 13,8 C 16,2 C 2,7 km/h (1 Bft)
24.07.2014 22:20 15,8 C 24,5 C 16,7 C 16,2 C 16,2 C 0,4 C 88 % 87 % 0 % 1012,4 hPa 0,0 l/m 0,3 km/h (0 Bft) W-SW 247 0 min 0,0 UV-I 13,8 C 16,2 C 0,0 km/h (0 Bft)
24.07.2014 22:25 15,8 C 24,5 C 16,7 C 16,3 C 16,3 C 0,5 C 88 % 87 % 0 % 1012,4 hPa 0,0 l/m 0,3 km/h (0 Bft) N-NW 337 0 min 0,0 UV-I 13,8 C 16,3 C 0,0 km/h (0 Bft)
24.07.2014 22:30 15,7 C 24,5 C 16,7 C 16,3 C 16,3 C 0,6 C 88 % 87 % 0 % 1012,4 hPa 0,0 l/m 0,2 km/h (0 Bft) NW 315 0 min 0,0 UV-I 13,7 C 16,3 C 0,0 km/h (0 Bft)
24.07.2014 22:35 15,7 C 24,5 C 16,7 C 16,3 C 16,3 C 0,6 C 88 % 87 % 0 % 1012,5 hPa 0,0 l/m 0,2 km/h (0 Bft) W-NW 292 0 min 0,0 UV-I 13,7 C 16,3 C 1,8 km/h (1 Bft)
24.07.2014 22:40 15,7 C 24,5 C 16,5 C 16,2 C 16,2 C 0,5 C 88 % 87 % 0 % 1012,5 hPa 0,0 l/m 0,5 km/h (0 Bft) W 270 0 min 0,0 UV-I 13,7 C 16,2 C 1,6 km/h (1 Bft)
24.07.2014 22:45 15,7 C 24,5 C 16,5 C 16,3 C 16,3 C 0,6 C 88 % 87 % 0 % 1012,5 hPa 0,0 l/m 0,6 km/h (0 Bft) N-NO 22 0 min 0,0 UV-I 13,7 C 16,3 C 1,6 km/h (1 Bft)
24.07.2014 22:50 15,7 C 24,5 C 16,5 C 16,3 C 16,3 C 0,6 C 88 % 88 % 0 % 1012,5 hPa 0,0 l/m 0,8 km/h (0 Bft) W-NW 292 0 min 0,0 UV-I 13,7 C 16,3 C 0,0 km/h (0 Bft)
24.07.2014 22:55 15,7 C 24,5 C 16,4 C 16,2 C 16,2 C 0,5 C 88 % 88 % 0 % 1012,4 hPa 0,0 l/m 1,0 km/h (0 Bft) N-NO 22 0 min 0,0 UV-I 13,7 C 16,2 C 2,3 km/h (1 Bft)
24.07.2014 23:00 15,7 C 24,5 C 16,4 C 16,3 C 16,3 C 0,6 C 88 % 88 % 0 % 1012,4 hPa 0,0 l/m 0,8 km/h (0 Bft) O-NO 67 0 min 0,0 UV-I 13,7 C 16,3 C 3,2 km/h (1 Bft)
24.07.2014 23:05 15,7 C 24,5 C 16,3 C 16,2 C 16,2 C 0,5 C 88 % 88 % 0 % 1012,4 hPa 0,0 l/m 0,8 km/h (0 Bft) NO 45 0 min 0,0 UV-I 13,7 C 16,2 C 0,0 km/h (0 Bft)
24.07.2014 23:10 15,6 C 24,4 C 16,3 C 16,2 C 16,2 C 0,6 C 88 % 88 % 0 % 1012,4 hPa 0,0 l/m 0,5 km/h (0 Bft) N-NW 337 0 min 0,0 UV-I 13,6 C 16,2 C 0,0 km/h (0 Bft)
24.07.2014 23:15 15,6 C 24,4 C 16,3 C 16,2 C 16,2 C 0,6 C 89 % 88 % 0 % 1012,4 hPa 0,0 l/m 0,5 km/h (0 Bft) W-NW 292 0 min 0,0 UV-I 13,8 C 16,2 C 0,0 km/h (0 Bft)
24.07.2014 23:20 15,6 C 24,4 C 16,3 C 16,2 C 16,2 C 0,6 C 89 % 89 % 0 % 1012,4 hPa 0,0 l/m 0,2 km/h (0 Bft) W-SW 247 0 min 0,0 UV-I 13,8 C 16,2 C 0,0 km/h (0 Bft)
24.07.2014 23:25 15,6 C 24,4 C 16,4 C 16,3 C 16,3 C 0,7 C 89 % 89 % 0 % 1012,4 hPa 0,0 l/m 0,0 km/h (0 Bft) SW 225 0 min 0,0 UV-I 13,8 C 16,3 C 0,0 km/h (0 Bft)
24.07.2014 23:30 15,6 C 24,4 C 16,5 C 16,3 C 16,3 C 0,7 C 89 % 89 % 0 % 1012,4 hPa 0,0 l/m 0,0 km/h (0 Bft) W-SW 247 0 min 0,0 UV-I 13,8 C 16,3 C 0,0 km/h (0 Bft)
24.07.2014 23:35 15,6 C 24,4 C 16,4 C 16,3 C 16,3 C 0,7 C 89 % 90 % 0 % 1012,1 hPa 0,0 l/m 0,0 km/h (0 Bft) N-NW 337 0 min 0,0 UV-I 13,8 C 16,3 C 0,0 km/h (0 Bft)
24.07.2014 23:40 15,6 C 24,4 C 16,5 C 16,2 C 16,2 C 0,6 C 89 % 90 % 0 % 1012,1 hPa 0,7 l/m 0,6 km/h (0 Bft) N-NW 337 0 min 0,0 UV-I 13,8 C 16,2 C 0,0 km/h (0 Bft)
24.07.2014 23:45 15,7 C 24,4 C 16,4 C 16,2 C 16,2 C 0,5 C 89 % 90 % 0 % 1012,1 hPa 0,0 l/m 0,8 km/h (0 Bft) N-NW 337 0 min 0,0 UV-I 13,9 C 16,2 C 0,0 km/h (0 Bft)
24.07.2014 23:50 15,7 C 24,4 C 16,5 C 16,2 C 16,2 C 0,5 C 89 % 90 % 0 % 1012,1 hPa 0,0 l/m 0,3 km/h (0 Bft) N-NO 22 0 min 0,0 UV-I 13,9 C 16,2 C 1,6 km/h (1 Bft)
24.07.2014 23:55 15,6 C 24,4 C 16,5 C 16,2 C 16,2 C 0,6 C 89 % 90 % 0 % 1012,3 hPa 0,0 l/m 0,3 km/h (0 Bft) N-NW 337 0 min 0,0 UV-I 13,8 C 16,2 C 1,6 km/h (1 Bft)
_ Min-Zeit 23:10 11:45 23:05 03:55 04:35 00:00 11:40 11:40 00:00 23:35 - 00:00 - - - 00:00 00:00 04:35 00:00
Minimum _ 15,6 C 24,0 C 16,3 C 15,8 C 15,3 C 0,0 C 63 % 64 % 0 % 1012,1 hPa - 0,0 km/h (0 Bft) - - - 0,0 UV-I 12,8 C 15,3 C 0,0 km/h (0 Bft)
_ Max-Zeit 11:40 00:00 11:35 09:25 09:25 08:05 23:15 23:35 07:20 12:55 14:25 11:05 - - 07:15 07:30 15:40 09:25 11:00
Maximum _ 22,0 C 25,4 C 22,2 C 27,9 C 27,9 C 7,8 C 89 % 90 % 100 % 1015,8 hPa 0,7 l/m 8,5 km/h
O-SO (2 Bft)
- - 5 min 0,7 UV-I 16,5 C 27,9 C 16,1 km/h
O-SO (3 Bft)
Durchschnitt _ 18,1 C 24,8 C 18,3 C 19,5 C 19,3 C 1,5 C 79 % 80 % 29 % 1013,9 hPa #1,4 l/m 2,0 km/h (1 Bft) O-NO - #4:00 h 0,3 UV-I 14,3 C 19,3 C 2,7 km/h (1 Bft)
2014 www.wetterstation-wechselburg.de